Weather History for KAVK - October, 2011

Change the Weather History Date:

Tuesday, October 18, 2011

  Actual Average Record
Temperature  
Mean Temperature 52 °F -  
Max Temperature 62 °F 70 °F 93 °F (2005)
Min Temperature 42 °F 45 °F 31 °F (1948)
Degree Days  
Heating Degree Days 13    
Growing Degree Days 2 (Base 50)    
Moisture  
Dew Point 33 °F    
Average Humidity 52    
Maximum Humidity 87    
Minimum Humidity 22    
Precipitation  
Precipitation 0.00 in - - ()
Sea Level Pressure  
Sea Level Pressure 30.14 in    
Wind  
Wind Speed 17 mph (NNW)    
Max Wind Speed 28 mph    
Max Gust Speed 39 mph    
Visibility 10 miles    
Events      
Averages and records for this station are not official NWS values.
T = Trace of Precipitation, MM = Missing Value Source: NWS Daily Summary

Daily Weather History Graph

Daily Weather History Graph

Search for Another Location

Airport or City:

Trip Planner

Search our weather history database for the weather conditions in past years. The results will help you decide how hot, cold, wet, or windy it might be!

Date:

Astronomy

Oct. 18, 2011 Rise Set
Actual Time 7:44 AM CDT 6:54 PM CDT
Civil Twilight 7:18 AM CDT 7:20 PM CDT
Nautical Twilight 6:48 AM CDT 7:50 PM CDT
Astronomical Twilight 6:18 AM CDT 8:20 PM CDT
Moon 11:42 PM CDT (10/18) 1:31 PM CDT (10/18)
Length of Visible Light 12h 02m
Length of Day
11h 09m
Waning Gibbous, 64% of the Moon is Illuminated
Oct 18
Waning Gibbous
Oct 19
Last Quarter
Oct 26
New
Nov 2
First Quarter
Nov 10
Full

Hourly Weather History & Observations

Time (CDT) Temp. Windchill Dew Point Humidity Pressure Visibility Wind Dir Wind Speed Gust Speed Precip Events Conditions
12:00 AM 51.8 °F - 35.6 °F 54% 30.10 in 10.0 mi North 20.7 mph 28.8 mph N/A   Overcast
12:20 AM 50.0 °F - 37.4 °F 62% 30.10 in 10.0 mi North 21.9 mph 29.9 mph N/A   Overcast
12:40 AM 50.0 °F - 37.4 °F 62% 30.12 in 10.0 mi North 23.0 mph 31.1 mph N/A   Overcast
1:00 AM 50.0 °F - 39.2 °F 66% 30.12 in 10.0 mi North 23.0 mph 31.1 mph N/A   Overcast
1:20 AM 50.0 °F - 39.2 °F 66% 30.12 in 10.0 mi North 13.8 mph 21.9 mph N/A   Overcast
1:40 AM 50.0 °F - 39.2 °F 66% 30.12 in 10.0 mi North 15.0 mph 21.9 mph N/A   Overcast
2:00 AM 48.2 °F - 39.2 °F 71% 30.12 in 10.0 mi North 16.1 mph 21.9 mph N/A   Overcast
2:20 AM 48.2 °F - 39.2 °F 71% 30.13 in 10.0 mi North 16.1 mph 25.3 mph N/A   Overcast
2:40 AM 48.2 °F - 39.2 °F 71% 30.13 in 10.0 mi North 11.5 mph - N/A   Overcast
3:00 AM 48.2 °F - 41.0 °F 76% 30.14 in 10.0 mi North 13.8 mph - N/A   Overcast
3:20 AM 48.2 °F - 41.0 °F 76% 30.14 in 10.0 mi North 15.0 mph 21.9 mph N/A   Overcast
3:35 AM 48.2 °F - 41.0 °F 76% 30.14 in 10.0 mi North 13.8 mph 20.7 mph N/A   Overcast
4:00 AM 48.2 °F - 41.0 °F 76% 30.12 in 10.0 mi North 12.7 mph - N/A   Overcast
4:20 AM 46.4 °F 41.5 °F 39.2 °F 76% 30.13 in 10.0 mi North 10.4 mph - N/A   Scattered Clouds
4:40 AM 46.4 °F 42.4 °F 39.2 °F 76% 30.13 in 10.0 mi North 8.1 mph - N/A   Partly Cloudy
5:00 AM 46.4 °F 41.9 °F 39.2 °F 76% 30.13 in 10.0 mi North 9.2 mph - N/A   Scattered Clouds
5:20 AM 44.6 °F 39.7 °F 39.2 °F 81% 30.13 in 10.0 mi NW 9.2 mph - N/A   Partly Cloudy
5:40 AM 44.6 °F 39.7 °F 39.2 °F 81% 30.13 in 10.0 mi NNW 9.2 mph - N/A   Clear
6:00 AM 44.6 °F 38.8 °F 39.2 °F 81% 30.13 in 10.0 mi NNW 11.5 mph 16.1 mph N/A   Clear
6:20 AM 44.6 °F 39.2 °F 39.2 °F 81% 30.13 in 10.0 mi NW 10.4 mph - N/A   Clear
6:40 AM 42.8 °F 37.0 °F 39.2 °F 87% 30.13 in 10.0 mi NW 10.4 mph - N/A   Clear
7:00 AM 42.8 °F 36.6 °F 37.4 °F 81% 30.13 in 10.0 mi NW 11.5 mph - N/A   Clear
7:20 AM 42.8 °F 37.5 °F 37.4 °F 81% 30.13 in 10.0 mi NW 9.2 mph - N/A   Clear
7:40 AM 42.8 °F 35.8 °F 37.4 °F 81% 30.14 in 10.0 mi NW 13.8 mph - N/A   Clear
8:00 AM 44.6 °F 37.4 °F 37.4 °F 76% 30.14 in 10.0 mi NW 16.1 mph 23.0 mph N/A   Clear
8:20 AM 44.6 °F 37.4 °F 37.4 °F 76% 30.14 in 10.0 mi NNW 16.1 mph 23.0 mph N/A   Clear
8:40 AM 46.4 °F 39.5 °F 37.4 °F 71% 30.15 in 10.0 mi NNW 17.3 mph 21.9 mph N/A   Clear
9:00 AM 48.2 °F - 37.4 °F 66% 30.15 in 10.0 mi NNW 19.6 mph 24.2 mph N/A   Clear
9:20 AM 50.0 °F - 35.6 °F 58% 30.15 in 10.0 mi NNW 17.3 mph 24.2 mph N/A   Clear
9:40 AM 50.0 °F - 35.6 °F 58% 30.16 in 10.0 mi NNW 16.1 mph 23.0 mph N/A   Clear
10:00 AM 50.0 °F - 35.6 °F 58% 30.17 in 10.0 mi NNW 16.1 mph - N/A   Clear
10:20 AM 53.6 °F - 35.6 °F 51% 30.17 in 10.0 mi NNW 18.4 mph 24.2 mph N/A   Clear
11:00 AM 55.4 °F - 32.0 °F 41% 30.17 in 10.0 mi NNW 18.4 mph 23.0 mph N/A   Clear
11:20 AM 57.2 °F - 32.0 °F 38% 30.17 in 10.0 mi NNW 20.7 mph - N/A   Clear
11:40 AM 59.0 °F - 30.2 °F 34% 30.17 in 10.0 mi North 21.9 mph 29.9 mph N/A   Clear
12:00 PM 59.0 °F - 30.2 °F 34% 30.17 in 10.0 mi North 21.9 mph 29.9 mph N/A   Clear
12:20 PM 59.0 °F - 28.4 °F 31% 30.16 in 10.0 mi NNW 20.7 mph 32.2 mph N/A   Clear
12:40 PM 59.0 °F - 28.4 °F 31% 30.16 in 10.0 mi North 20.7 mph 33.4 mph N/A   Clear
1:00 PM 60.8 °F - 28.4 °F 29% 30.15 in 10.0 mi North 21.9 mph 28.8 mph N/A   Clear
1:40 PM 60.8 °F - 28.4 °F 29% 30.13 in 10.0 mi NNW 25.3 mph 38.0 mph N/A   Clear
2:00 PM 62.6 °F - 28.4 °F 27% 30.13 in 10.0 mi NNW 27.6 mph 32.2 mph N/A   Clear
2:20 PM 60.8 °F - 26.6 °F 27% 30.12 in 10.0 mi North 27.6 mph 38.0 mph N/A   Clear
2:40 PM 62.6 °F - 24.8 °F 24% 30.12 in 10.0 mi NNW 24.2 mph 35.7 mph N/A   Clear
3:00 PM 62.6 °F - 23.0 °F 22% 30.12 in 10.0 mi North 21.9 mph 36.8 mph N/A   Clear
3:20 PM 60.8 °F - 24.8 °F 25% 30.12 in 10.0 mi North 24.2 mph 34.5 mph N/A   Clear
3:40 PM 60.8 °F - 28.4 °F 29% 30.11 in 10.0 mi North 26.5 mph 39.1 mph N/A   Clear
4:00 PM 60.8 °F - 28.4 °F 29% 30.11 in 10.0 mi North 25.3 mph 32.2 mph N/A   Clear
4:20 PM 60.8 °F - 26.6 °F 27% 30.11 in 10.0 mi North 25.3 mph 33.4 mph N/A   Clear
4:40 PM 60.8 °F - 28.4 °F 29% 30.11 in 10.0 mi NNW 23.0 mph 34.5 mph N/A   Clear
5:00 PM 59.0 °F - 26.6 °F 29% 30.12 in 10.0 mi NNW 23.0 mph 34.5 mph N/A   Clear
5:20 PM 59.0 °F - 28.4 °F 31% 30.12 in 10.0 mi NNW 21.9 mph 33.4 mph N/A   Clear
6:00 PM 57.2 °F - 26.6 °F 31% 30.12 in 10.0 mi North 15.0 mph - N/A   Clear
6:20 PM 57.2 °F - 26.6 °F 31% 30.12 in 10.0 mi North 21.9 mph 27.6 mph N/A   Clear
6:40 PM 57.2 °F - 26.6 °F 31% 30.13 in 10.0 mi North 18.4 mph 25.3 mph N/A   Clear
7:00 PM 55.4 °F - 26.6 °F 33% 30.14 in 10.0 mi North 15.0 mph - N/A   Clear
7:20 PM 55.4 °F - 26.6 °F 33% 30.14 in 10.0 mi North 13.8 mph - N/A   Partly Cloudy
7:40 PM 53.6 °F - 26.6 °F 35% 30.15 in 10.0 mi NNW 12.7 mph 18.4 mph N/A   Partly Cloudy
8:00 PM 53.6 °F - 26.6 °F 35% 30.15 in 10.0 mi NNW 9.2 mph - N/A   Partly Cloudy
8:20 PM 51.8 °F - 26.6 °F 38% 30.16 in 10.0 mi NNW 10.4 mph - N/A   Clear
8:40 PM 51.8 °F - 26.6 °F 38% 30.16 in 10.0 mi NNW 9.2 mph - N/A   Partly Cloudy
9:00 PM 50.0 °F - 26.6 °F 40% 30.16 in 10.0 mi NW 6.9 mph - N/A   Scattered Clouds
9:20 PM 48.2 °F - 26.6 °F 43% 30.16 in 10.0 mi NW 8.1 mph - N/A   Partly Cloudy
9:40 PM 46.4 °F 41.9 °F 26.6 °F 46% 30.17 in 10.0 mi NNW 9.2 mph - N/A   Partly Cloudy
10:00 PM 46.4 °F 42.9 °F 26.6 °F 46% 30.17 in 10.0 mi NW 6.9 mph - N/A   Partly Cloudy
10:20 PM 44.6 °F 41.4 °F 26.6 °F 49% 30.16 in 10.0 mi NW 5.8 mph - N/A   Partly Cloudy
11:00 PM 42.8 °F 38.6 °F 28.4 °F 57% 30.17 in 10.0 mi NW 6.9 mph - N/A   Clear
11:20 PM 42.8 °F 38.0 °F 28.4 °F 57% 30.16 in 10.0 mi NW 8.1 mph - N/A   Clear
11:40 PM 42.8 °F 38.6 °F 28.4 °F 57% 30.16 in 10.0 mi NW 6.9 mph - N/A   Partly Cloudy